+ View the NASA Portal
+ Center for Near-Earth Object Studies
IMPORTANT:
The SSD Announcement email list is now available. Major changes are coming in the near future, including possible hostname and/or URL changes. To be notified of such changes, subscribe to this email list.
Please visit
this page
for more details.
Don't show this message again
JPL Small-Body Database Browser
Search:
[
help
]
233856 (2008 VM3)
Classification:
Main-belt Asteroid
SPK-ID:
2233856
[
Ephemeris
|
Orbit Diagram
|
Orbital Elements
|
Mission Design
|
Physical Parameters
|
Discovery Circumstances
]
[ show orbit diagram ]
Orbital Elements at Epoch 2458600.5 (2019-Apr-27.0) TDB
Reference:
JPL 14
(heliocentric ecliptic J2000)
Element
Value
Uncertainty (1-sigma)
Units
e
.1403190133493846
5.8613e-08
a
2.300428474947642
1.4578e-08
au
q
1.97763462106216
1.3386e-07
au
i
8.140160399077152
6.0937e-06
deg
node
354.2481061705503
4.0987e-05
deg
peri
339.2898937100866
4.4783e-05
deg
M
58.02479142431444
1.9389e-05
deg
t
p
2458395.089511139948
(2018-Oct-03.58951114)
6.827e-05
TDB
period
1274.416920327475
3.49
1.2114e-05
3.317e-08
d
yr
n
.2824821251647335
2.6852e-09
deg/d
Q
2.623222328833125
1.6624e-08
au
Orbit Determination Parameters
# obs. used (total)
337
data-arc span
8642 days (23.66 yr)
first obs. used
1996-03-12
last obs. used
2019-11-09
planetary ephem.
DE431
SB-pert. ephem.
SB431-N16
condition code
0
norm. resid. RMS
.57834
source
ORB
producer
Otto Matic
solution date
2019-Dec-04 17:55:07
Additional Information
Earth MOID
= .969452 au
Jupiter MOID
= 2.73859 au
T_jup
= 3.565
[ show covariance matrix ]
[
Ephemeris
|
Orbit Diagram
|
Orbital Elements
|
Mission Design
|
Physical Parameters
|
Discovery Circumstances
]
Physical Parameter Table
Parameter
Symbol
Value
Units
Sigma
Reference
Notes
absolute magnitude
H
16.6
n/a
MPO454691
233856 (2008 VM3)
Discovered 2008-Nov-03 by LINEAR at Socorro
Reference:
20100228/Numbers.arc
Last Updated:
2010-03-03
Alternate Designations
2008 VM3
= 1996 ET9
[
Ephemeris
|
Orbit Diagram
|
Orbital Elements
|
Mission Design
|
Physical Parameters
|
Discovery Circumstances
]
2019-Dec-10 13:30 UT
(server date/time)
Site Manager:
Ryan S. Park
Webmaster
:
Alan B. Chamberlin